Flag for U.S.A. Weather past 2 weeks in Charleston, West Virginia, U.S.A.

Now
65 °F

Passing clouds.


Feels Like: 65 °F
Forecast: 61 / 78 °F
Wind: 5 mph from South

Location: Yeager Airport

Current Time: Sep 21, 2014 at 9:14:48 AM

Latest Report: Sep 21, 2014 at 7:54 AM


Visibility: 9 mi

Pressure: 29.88 "Hg

Humidity: 94%

Dew point: 63 °F

Location of CharlestonLocation

Historic Weather in Charleston — Graph

°F

Charleston temperature yesterday

Maximum temperature yesterday: 81 °F (at 1:54 PM)
Minimum temperature yesterday: 59 °F (at 6:54 AM)
Average temperature yesterday: 69 °F

Past Weeks' High & Low Weather Summary

 TemperatureHumidityPressure
High84 °F (Sep 6, 11:54 AM)100% (Sep 6, 7:54 AM)30.30 "Hg (Sep 6, 7:54 AM)
Low50 °F (Sep 14, 3:54 AM)20% (Sep 11, 7:54 PM)29.86 "Hg (Sep 11, 3:54 AM)
Average65 °F84%30.08 "Hg
* Reported Sep 6 7:54 AM — Sep 21 7:54 AM, Charleston, Weather by CustomWeather, © 2014

Note: Actual official high and low records may vary slightly from our data, if they occured in-between our weather recording intervals... More about our weather records

Advertising

Charleston weather history for previous 24 hours

 ConditionsComfort  
Time TempWeatherWind HumidityBarometerVisibility
7:54 AM
Sep 21
65 °FPassing clouds.5 mph94%29.88 "Hg9 mi
7:01 AM61 °FPassing clouds.No wind97%29.90 "Hg8 mi
5:54 AM61 °FClear.No wind100%29.88 "Hg8 mi
4:54 AM63 °FClear.No wind93%29.88 "Hg8 mi
3:54 AM61 °FFog.3 mph100%29.90 "Hg6 mi
2:54 AM61 °FFog.No wind100%29.92 "Hg6 mi
1:54 AM63 °FFog.No wind100%29.94 "Hg6 mi
12:54 AM64 °FFog.No wind100%29.95 "Hg6 mi
11:54 PM
Sep 20
64 °FFog.No wind100%29.98 "Hg6 mi
10:54 PM66 °FClear.No wind96%30.01 "Hg7 mi
9:54 PM67 °FClear.No wind93%30.01 "Hg9 mi
8:54 PM69 °FPassing clouds.No wind90%30.00 "Hg10 mi
7:54 PM71 °FPassing clouds.No wind87%29.97 "Hg10 mi
6:54 PM77 °FScattered clouds.No wind66%29.98 "Hg10 mi
5:54 PM79 °FScattered clouds.9 mph58%29.99 "Hg10 mi
4:54 PM81 °FScattered clouds.3 mph54%30.02 "Hg10 mi
3:54 PM81 °FScattered clouds.7 mph53%30.04 "Hg10 mi
2:54 PM80 °FScattered clouds.5 mph54%30.06 "Hg10 mi
1:54 PM81 °FBroken clouds.8 mph51%30.08 "Hg10 mi
Weather by CustomWeather, © 2014

See weather overviewHow to use our weather pages